CET,Max TemperatureF,Mean TemperatureF,Min TemperatureF,Max Dew PointF,MeanDew PointF,Min DewpointF,Max Humidity, Mean Humidity, Min Humidity, Max Sea Level PressureIn, Mean Sea Level PressureIn, Min Sea Level PressureIn, Max VisibilityMiles, Mean VisibilityMiles, Min VisibilityMiles, Max Wind SpeedMPH, Mean Wind SpeedMPH, Max Gust SpeedMPH,PrecipitationIn, CloudCover, Events, WindDirDegrees
2012-11-1,66,60,55,54,51,46,88,64,39,29.77,29.60,29.50,19,7,6,21,12,,0.00,1,,263
2012-11-2,69,58,48,59,53,46,100,80,47,29.98,29.91,29.77,17,7,6,17,4,,0.00,1,,267
2012-11-3,68,59,50,66,59,48,100,89,68,29.98,29.88,29.80,16,7,6,14,4,,0.00,4,Rain,216
2012-11-4,71,68,64,68,66,63,100,91,75,29.81,29.75,29.68,9,6,3,16,6,,0.00,4,Rain,217
2012-11-5,68,62,55,64,52,42,88,66,31,30.06,29.92,29.71,19,7,6,15,8,26,0.00,1,Rain,315
2012-11-6,63,57,51,54,51,45,100,77,46,30.24,30.13,30.06,16,7,6,10,1,,0.02,2,Rain,359
2012-11-7,61,54,48,54,48,43,94,74,46,30.39,30.33,30.27,19,7,6,17,6,,0.00,2,,58
2012-11-8,69,58,46,59,52,43,93,78,48,30.33,30.21,30.09,19,7,6,10,3,,0.00,2,,70
2012-11-9,72,66,59,64,61,56,100,86,63,30.09,29.98,29.89,19,7,6,12,5,,0.01,3,Rain,54
2012-11-10,66,64,63,64,60,53,100,83,62,29.92,29.82,29.77,16,6,4,17,9,,0.02,3,Rain,226
2012-11-11,68,59,50,57,53,46,94,72,37,29.92,29.76,29.71,19,7,6,17,9,,0.00,2,Rain-Thunderstorm,226
2012-11-12,63,60,56,57,53,48,94,78,61,30.12,30.04,29.92,12,6,5,25,17,34,0.00,2,Rain-Thunderstorm,46
2012-11-13,68,63,58,64,59,47,94,85,54,30.09,29.98,29.89,12,5,2,32,21,47,0.04,5,Rain,50
2012-11-14,69,63,57,64,60,56,100,86,68,30.06,29.99,29.95,16,5,1,23,11,23,0.47,3,Rain-Thunderstorm,42
2012-11-15,69,64,59,63,60,57,100,89,67,30.09,30.07,30.04,14,7,6,14,7,,0.01,2,Rain,57
2012-11-16,69,60,50,61,56,48,100,87,64,30.11,30.06,30.01,12,6,6,7,2,,0.00,2,,65
2012-11-17,64,59,54,59,57,52,100,87,67,30.01,29.87,29.74,16,7,6,8,5,,0.00,4,Rain,65
2012-11-18,68,60,51,61,57,52,100,88,63,29.83,29.75,29.68,16,7,6,15,3,,0.00,3,Thunderstorm,51
2012-11-19,66,58,50,57,54,48,100,80,47,30.04,29.94,29.83,19,7,6,14,5,,0.01,3,,46
2012-11-20,67,56,45,61,53,44,100,89,58,30.06,30.05,30.04,19,7,6,13,2,,0.00,1,,220
2012-11-21,66,58,50,61,55,49,100,91,65,30.15,30.07,30.04,19,6,2,13,2,,0.00,1,Fog,326
2012-11-22,68,60,53,59,55,52,100,91,64,30.18,30.15,30.12,9,6,6,7,3,,0.00,2,,40
2012-11-23,66,56,46,59,53,45,100,89,59,30.21,30.18,30.15,16,7,6,7,2,,0.00,1,Fog,134
2012-11-24,67,58,48,61,54,47,100,89,54,30.21,30.14,30.09,12,6,2,9,2,,0.00,1,,75
2012-11-25,67,56,46,59,53,46,100,89,57,30.15,30.11,30.06,12,6,6,7,1,,0.00,2,Fog,340
2012-11-26,67,58,48,63,56,47,100,93,66,30.06,29.95,29.80,17,4,0,18,2,,0.00,2,Fog-Rain,225
2012-11-27,58,54,51,59,53,45,100,92,72,29.80,29.64,29.53,12,6,0,34,5,46,1.61,4,Rain-Thunderstorm,358
2012-11-28,55,50,45,48,45,40,100,78,50,29.56,29.47,29.42,12,6,4,16,6,24,0.31,4,Rain-Thunderstorm,305
2012-11-29,57,50,42,45,42,38,93,67,41,29.66,29.59,29.50,16,7,6,15,10,22,0.00,2,,296
2012-11-30,55,47,39,46,41,37,100,81,48,29.71,29.64,29.59,17,7,6,12,3,22,0.00,1,Rain,38